AQI (44)

Current Conditions for Foresthill, CA. Clear skies, Dry   
Visibility: 10 miles
Space WX Alerts: ALERT:  Electron 2MeV Integral Flux exceeded 1000pfu ( Latest Alert ) - Issue Time: 2018 Oct 16 1612 UTC

  Summary / Temperature 

Current Temperature
63.2°F
17.3°C
(24/hr Ago)
61.0°F
(Apparent temp)
55.6°F
Comfortable
Wind Chill Graphs
63.2°F 

63.2°F/ 17.3°C
 --- Virtual Temp: 64.1°F ---

 Temp Rate:

 24/hr Difference:

 Avg Running Temp:

 Todays High:

 Todays Low:

 Y-days High:

 Y-days Low:

 Todays WChill:

 Y-days WChill:

 Evapotranspiration:

+0.2°F/hr 

+2.2°F

62.9°F

75.6°F 12:44pm

60.2°F 6:57am

72.8°F 1:48pm

55.4°F 5:02am

57.0°F 7:05am

49.7°F 5:16am

0.180 in

115' Above Ground

 Temperature:

 6'AGL VRS 115'AGL:

 Avg Running Temp:

 Humidity:

 Todays High:

 Todays Low:

 Y-days High:

 Y-days Low:

66.0°F 

+2.8°F

66.1°F

17% 

78.0°F 12:47pm

63.0°F 3:06am

74.0°F 1:20pm

56.0°F 3:46am

Temp & Humidity Graphs

  Wind 

Wind Speed

 9.0 mph

Gusting to

 18.0 mph

Wind from E

97°  E

Gentle breeze

 Avg speed:

 Wind Run:

 Peak Gust:

  5.0 mph 

98.0 miles

  34.0 mph 12:45am

  Almanac  

Moon age: 7 days,20 hours,14 minutes,55%

Waxing Gibbous
55%
Illuminated
7 days in cycle

 Moonrise:

 Moonset:

 Sunrise:

 Sunset:

 Solar Noon:

2:20pm

---

7:15am

6:24pm

12:49pm

2min 32s less daylight tomorrow 

  Solar Radiation 

(Current Solar)
  No Sun Light
(Todays High)
 684 W/m2@12:51pm

Rain

 Rain Today:

 Rain Rate (/hr):

 Rain last hour:

 Rain Yesterday:

 This Month:

 Season Total:

9 Days Since Last Rain Day

0.00 in

0.000 in

0.00 in

0.00 in

0.92 in

0.92 in

Updated Time

Updated: 10/16/18  11:37pm

(Updated  sec ago)

Humidity & Barometer

 Humidity:

 Wetbulb:

 Dew Point:

 Barometer:

21% 

50.2°F 

22.6°F 

30.058 inHg 

 Baro Trend:  Steady 
Northern Calif
Preparedness
Fire 
Level 

    UV Index  

(Current UV)
0.0  None
(Todays High) @ 12:48pm
4.7   Medium

National Weather Service Forecast

Tonight

Tonight: Clear
Clear
Wednesday

Wednesday: Sunny
Sunny
Wednesday
Night
Wednesday Night: Clear
Clear
Thursday

Thursday: Sunny
Sunny
Thursday
Night
Thursday Night: Clear
Clear
Friday

Friday: Sunny
Sunny
Lo 50 °F Hi 72 °F ↓ Lo 52 °F ↑ Hi 73 °F Lo 53 °F Hi 76 °F

Foresthill Probe 2 Stats  
Foresthill Probe 2: is located on Thomas Street
at 3000 feet. The main Foresthill Weather site
is located on Melody ln at the 2860 foot elevation

Light Air
63.3°F
17.4°C
Temp Rate:
+0.9°F
1.0 mph
Gusting to
8.0 mph
(Humidity)
18%
Wind from SSW
198°  SSW
Updated: 16/10/18 - 23:31:51
 Todays High: 76.6°F 13:22
 Todays Low: 59.1°F 03:46
 Rain Today: 0.00 in
 Season Total: 0.63 in

Foresthill Wx: Monthly,Yearly, Highs and Lows 

Foresthill  
This Weather Data is coming from the main Foresthill
Weather site located on Melody ln at the 2860 foot
elevation
Not Foresthill Probe 2
Weather Data
Month
  High
Month
  Low
Year
High
Year
Low
Temp 76.9°F
10/2/18
48.1°F
10/5/18
93.9°F
8/10/18
21.9°F
2/23/18
Humidity 100%
10/5/18
9%
10/15/18
100%
1/8/18
9%
10/15/18
Heat Index 76.7°F
10/2/18
50.6°F
10/7/18
93.3°F
7/25/18
27.1°F
2/20/18
Wind Chill 76.9°F
10/2/18
44.2°F
10/5/18
93.9°F
8/10/18
9.2°F
2/23/18
Wind Gust 43 mph
10/14/18
0 mph
10/1/18
43 mph
3/1/18
0 mph
1/1/18
Barometer 30.18 in
10/15/18
29.75 in
10/9/18
30.55 in
1/27/18
29.60 in
6/16/18
ET 0.20 in
10/14/18
0.00 in
10/1/18
0.25 in
6/24/18
0.00 in
1/1/18
Dew Point 55.9°F
10/3/18
7.1°F
10/15/18
66.9°F
7/24/18
7.1°F
10/15/18
Pacific Satellite US Radar Satellite Imagery Sacramento,CA.  (click to enlarge)
NWS Weather Forecast - Summary
Updated: Tuesday, October 16, 2018 - 3:16pm PDT
Continued Dry with Locally Gusty Northeast Winds West Slope Sierra Nevada Tonight
Current Interstate Highway Conditions for I-80 & US-50

[I 80: IN THE SAN FRANCISCO BAY AREA - SOLANO CO]
no traffic restrictions are reported for this area.

[I 80: IN THE NORTHERN CALIFORNIA AREA & SIERRA NEVADA]
no traffic restrictions are reported for this area.

[US 50: IN THE SACRAMENTO VALLEY & THE LAKE TAHOE BASIN]
no traffic restrictions are reported for this area.
NWS Weather Forecast: Tonight and Wednesday (Updated: Tue, 16-Oct-2018 4:32pm PDT)
Tonight

Tonight: Clear
Clear

Lo 50 °F
NWS forecast: Clear, with a low around 50. East northeast wind 3 to 10 mph.
Wednesday

Wednesday: Sunny
Sunny

Hi 72 °F ↓
NWS forecast: Sunny. High near 72, with temperatures falling to around 70 in the afternoon. Southeast wind 3 to 7 mph.
YR.NO 10 Day Weather forecast
Last update: 10/16/2018 @ 12:33
Next update: 10/17/2018 @ 01:00
Provided by: 22
      Temperature Precipitation Pressure Wind  
Today
10/16/2018
21:00 00:00 55°F   30.05 inHg Gentle breeze from northeast 8 mph
    (Click to enlarge)
meteogram

    Forecast for next 9 days

      Temperature Precip Pressure Wind  
Wednesday
10/17/2018
00:00 06:00 57°F   30.06 inHg Gentle breeze from east-northeast 8 mph
  06:00 12:00 48°F   30.09 inHg Light breeze from east-northeast 7 mph
  12:00 18:00 70°F   30.09 inHg Light breeze from west-southwest 4 mph
  18:00 00:00 63°F   30.04 inHg Light air from west-southwest 2 mph
      Temperature Precip Pressure Wind  
Thursday
10/18/2018
00:00 06:00 46°F   30.09 inHg Light breeze from east-northeast 6 mph
  06:00 12:00 43°F   30.11 inHg Light breeze from east-northeast 6 mph
  12:00 18:00 72°F   30.12 inHg Light breeze from west 4 mph
  18:00 00:00 63°F   30.08 inHg Light breeze from west-northwest 4 mph
      Temperature Precip Pressure Wind  
Friday
10/19/2018
00:00 06:00 48°F   30.11 inHg Light breeze from east-northeast 7 mph
  05:00 11:00 48°F   30.09 inHg Light breeze from east-northeast 6 mph
  11:00 17:00 73°F   30.12 inHg Light air from southwest 3 mph
  17:00 23:00 72°F   30.03 inHg Light breeze from west 4 mph
  23:00 05:00 52°F   30.04 inHg Light breeze from east-northeast 4 mph
      Temperature Precip Pressure Wind  
Saturday
10/20/2018
05:00 11:00 52°F   30.01 inHg Light breeze from east-northeast 7 mph
  11:00 17:00 73°F   30.01 inHg Light air from west-southwest 3 mph
  17:00 23:00 70°F   29.94 inHg Light air from west-southwest 3 mph
  23:00 05:00 46°F   29.99 inHg Light breeze from east-northeast 5 mph
      Temperature Precip Pressure Wind  
Sunday
10/21/2018
05:00 11:00 48°F   29.99 inHg Light breeze from east-northeast 6 mph
  11:00 17:00 72°F   30.02 inHg Light breeze from southwest 4 mph
  17:00 23:00 68°F   29.98 inHg Light air from southwest 3 mph
  23:00 05:00 46°F   30.00 inHg Light breeze from east-northeast 4 mph
      Temperature Precip Pressure Wind  
Monday
10/22/2018
05:00 11:00 43°F   29.99 inHg Light breeze from east-northeast 5 mph
  11:00 17:00 70°F   30.00 inHg Light air from west-southwest 3 mph
  17:00 23:00 66°F   29.96 inHg Light air from southwest 2 mph
  23:00 05:00 45°F   29.99 inHg Light air from east-northeast 3 mph
      Temperature Precip Pressure Wind  
Tuesday
10/23/2018
05:00 11:00 41°F   30.00 inHg Light breeze from east-northeast 4 mph
  11:00 17:00 63°F   30.04 inHg Light breeze from south-southwest 4 mph
  17:00 23:00 61°F   30.02 inHg Light air from southwest 3 mph
  23:00 05:00 48°F   30.06 inHg Light air from east-northeast 3 mph
      Temperature Precip Pressure Wind  
Wednesday
10/24/2018
05:00 11:00 41°F   30.03 inHg Light breeze from east-northeast 5 mph
  11:00 17:00 66°F   30.04 inHg Light breeze from southwest 4 mph
  17:00 23:00 64°F   30.00 inHg Light breeze from southwest 5 mph
  23:00 05:00 50°F   30.00 inHg Light breeze from east 4 mph
      Temperature Precip Pressure Wind  
Thursday
10/25/2018
05:00 11:00 48°F 0.07 in 30.06 inHg Light air from east-southeast 3 mph
  11:00 17:00 55°F 0.54 in 30.05 inHg Light breeze from south 6 mph
  17:00 23:00 50°F 0.04 in 30.03 inHg Light breeze from southeast 6 mph
  23:00 05:00 52°F   30.02 inHg Light air from southwest 3 mph

NOAA Local Storm Report
2 MILES NORTHEAST OF CIRCLE HOT SPRINGS   ( More )
DATE
10/16/2018
TIME
9:00 AM
COUNTY
YUKON-KOYUKUK
STATE
AK
GEOGRAPHIC
65.49N 144.64W
SOURCE
CO-OP OBSERVER
FREEZING RAIN MEASURED AT 0.31 INCH
freezing rain accumulation of 0. 31 since overnight. Ice has accumulated on trees and road surfaces.
How Close Are We To this Month's Temperature Record ?
Updated Tuesday, Oct 16, 2018- 11:30:00 PM

Current Temperature: 63.2°F

October's High: Temperature Record 90.8°F - Set on Mon, Oct 1, 2012 - 2:51:00 PM
We are currently 27.6°F Less than this Month's record High

October's Low: Temperature Record 38.8°F - Set on Tue, Oct 23, 2012 - 11:59:00 PM
We are currently 24.4°F More than this Month's record Low

Weather History For Wednesday, October 17, 2018


On this Day - In Weather History ...
Data courtesy of weatherforyou.com
powered by Cumulus v1.9.3 (1059)
Ambient Weather VWS v14.00
Top Contact Website Map Copyright © 2007 - 2018 Foresthillweather.com Never base important decisions on this or any weather information obtained from the Internet